AUA108 LOWI-LOWW

Flight info

Callsign AUA108
Flight time 0h 46m
Altitude 29000
Route RTT DCT NEMAL NEMAL2W
Aircraft A321/M-SDE3FGHIRWY/LB1

Departure

Time 2026-04-25 05:56
Airport Innsbruck Airport (LOWI)

Arrival

Time 2026-04-25 06:42
Airport Vienna International Airport (LOWW)
Time Latitude Longitude Altitude Speed Heading
2026-04-25 05:37 47.25825 11.35050 1904 ft 0 kts 171°
2026-04-25 05:48 47.25828 11.35049 1904 ft 3 kts 171°
2026-04-25 05:48 47.25854 11.35043 1904 ft 2 kts 171°
2026-04-25 05:49 47.25871 11.35037 1902 ft 4 kts 120°
2026-04-25 05:49 47.25874 11.35005 1890 ft 4 kts 81°
2026-04-25 05:49 47.25871 11.34981 1904 ft 0 kts 81°
2026-04-25 05:53 47.25872 11.34985 1892 ft 3 kts 81°
2026-04-25 05:53 47.25882 11.35084 1892 ft 16 kts 81°
2026-04-25 05:53 47.25901 11.35256 1897 ft 17 kts 81°
2026-04-25 05:53 47.25948 11.35290 1900 ft 9 kts 348°
2026-04-25 05:54 47.26040 11.35262 1899 ft 16 kts 348°
2026-04-25 05:54 47.26118 11.35308 1904 ft 14 kts 78°
2026-04-25 05:54 47.26134 11.35580 1904 ft 13 kts 117°
2026-04-25 05:55 47.26113 11.35695 1894 ft 12 kts 77°
2026-04-25 05:55 47.26159 11.35706 1902 ft 5 kts 281°
2026-04-25 05:55 47.26152 11.35617 1904 ft 13 kts 259°
2026-04-25 05:55 47.26106 11.35218 1906 ft 79 kts 261°
2026-04-25 05:56 47.25982 11.34062 1904 ft 145 kts 261°
2026-04-25 05:56 47.25806 11.32518 2459 ft 155 kts 262°
2026-04-25 05:56 47.25848 11.30926 3206 ft 155 kts 277°
2026-04-25 05:56 47.25972 11.29314 3771 ft 165 kts 277°
2026-04-25 05:57 47.26102 11.27595 4390 ft 168 kts 277°
2026-04-25 05:57 47.26062 11.25884 5057 ft 170 kts 255°
2026-04-25 05:57 47.25431 11.24431 5671 ft 172 kts 222°
2026-04-25 05:57 47.24358 11.23703 6297 ft 176 kts 191°
2026-04-25 05:58 47.23138 11.23947 6889 ft 182 kts 158°
2026-04-25 05:58 47.22176 11.25201 7473 ft 188 kts 122°
2026-04-25 05:58 47.21879 11.27038 8041 ft 191 kts 85°
2026-04-25 05:58 47.22311 11.28867 8590 ft 191 kts 60°
2026-04-25 05:59 47.22932 11.30606 9163 ft 193 kts 60°
2026-04-25 05:59 47.23560 11.32357 9725 ft 194 kts 60°
2026-04-25 05:59 47.24190 11.34118 10278 ft 195 kts 60°
2026-04-25 05:59 47.24823 11.35892 10820 ft 197 kts 60°
2026-04-25 06:00 47.25350 11.37765 11323 ft 201 kts 68°
2026-04-25 06:00 47.25816 11.39819 11518 ft 223 kts 70°
2026-04-25 06:00 47.26306 11.42092 11662 ft 242 kts 70°
2026-04-25 06:00 47.26833 11.44561 11778 ft 264 kts 70°
2026-04-25 06:01 47.27410 11.47257 11960 ft 284 kts 70°
2026-04-25 06:01 47.28017 11.50085 12330 ft 299 kts 70°
2026-04-25 06:01 47.28671 11.53124 12607 ft 323 kts 71°
2026-04-25 06:01 47.29369 11.56391 12899 ft 344 kts 71°
2026-04-25 06:02 47.30097 11.59796 13514 ft 352 kts 71°
2026-04-25 06:02 47.30837 11.63259 14243 ft 356 kts 70°
2026-04-25 06:02 47.31879 11.66573 14937 ft 358 kts 57°
2026-04-25 06:02 47.33170 11.69746 15657 ft 362 kts 57°
2026-04-25 06:03 47.34487 11.72938 16363 ft 366 kts 57°
2026-04-25 06:03 47.35815 11.76157 17050 ft 370 kts 57°
2026-04-25 06:03 47.37157 11.79418 17728 ft 374 kts 57°
2026-04-25 06:03 47.38513 11.82723 18369 ft 378 kts 57°
2026-04-25 06:04 47.39882 11.86073 18983 ft 382 kts 57°
2026-04-25 06:04 47.41256 11.89454 19589 ft 385 kts 57°
2026-04-25 06:04 47.42639 11.92861 20192 ft 389 kts 57°
2026-04-25 06:04 47.43887 11.96417 20763 ft 393 kts 63°
2026-04-25 06:05 47.45061 12.00082 21316 ft 396 kts 63°
2026-04-25 06:05 47.46246 12.03780 21832 ft 399 kts 62°
2026-04-25 06:05 47.47438 12.07501 22354 ft 402 kts 63°
2026-04-25 06:05 47.48639 12.11253 22843 ft 405 kts 63°
2026-04-25 06:06 47.49827 12.14974 23317 ft 407 kts 63°
2026-04-25 06:06 47.51046 12.18800 23763 ft 410 kts 63°
2026-04-25 06:06 47.52248 12.22568 24201 ft 412 kts 63°
2026-04-25 06:06 47.53476 12.26417 24632 ft 415 kts 63°
2026-04-25 06:07 47.54712 12.30290 25043 ft 418 kts 63°
2026-04-25 06:07 47.55957 12.34196 25451 ft 421 kts 63°
2026-04-25 06:07 47.57208 12.38130 25863 ft 424 kts 63°
2026-04-25 06:07 47.58465 12.42097 26289 ft 427 kts 63°
2026-04-25 06:08 47.59726 12.46094 26699 ft 430 kts 63°
2026-04-25 06:08 47.60995 12.50124 27095 ft 433 kts 63°
2026-04-25 06:08 47.62273 12.54183 27512 ft 436 kts 63°
2026-04-25 06:08 47.63559 12.58272 27919 ft 439 kts 63°
2026-04-25 06:09 47.64853 12.62389 28285 ft 442 kts 63°
2026-04-25 06:09 47.66152 12.66533 28651 ft 444 kts 63°
2026-04-25 06:09 47.67456 12.70702 29002 ft 447 kts 63°
2026-04-25 06:09 47.68768 12.74904 29119 ft 449 kts 63°
2026-04-25 06:10 47.71405 12.83375 29136 ft 453 kts 63°
2026-04-25 06:10 47.74041 12.91866 29138 ft 453 kts 63°
2026-04-25 06:11 47.76676 13.00361 29137 ft 453 kts 63°
2026-04-25 06:11 47.79297 13.08880 29137 ft 453 kts 63°
2026-04-25 06:12 47.81915 13.17397 29138 ft 453 kts 63°
2026-04-25 06:12 47.84534 13.25924 29136 ft 453 kts 63°
2026-04-25 06:13 47.87144 13.34458 29138 ft 453 kts 63°
2026-04-25 06:14 47.90546 13.45881 29136 ft 455 kts 68°
2026-04-25 06:14 47.91768 13.55143 29127 ft 460 kts 86°
2026-04-25 06:15 47.91742 13.64671 29128 ft 460 kts 89°
2026-04-25 06:15 47.91695 13.74224 29129 ft 461 kts 89°
2026-04-25 06:16 47.91643 13.83784 29118 ft 462 kts 89°
2026-04-25 06:16 47.91586 13.93353 29119 ft 462 kts 89°
2026-04-25 06:17 47.91513 14.02931 29118 ft 462 kts 89°
2026-04-25 06:17 47.91427 14.12514 29119 ft 462 kts 89°
2026-04-25 06:17 47.91381 14.17262 28946 ft 452 kts 89°
2026-04-25 06:18 47.91334 14.21884 28695 ft 441 kts 89°
2026-04-25 06:18 47.91291 14.26337 28216 ft 430 kts 89°
2026-04-25 06:18 47.91248 14.30779 26565 ft 433 kts 89°
2026-04-25 06:18 47.91205 14.35188 25516 ft 422 kts 89°
2026-04-25 06:19 47.91158 14.39392 25338 ft 390 kts 89°
2026-04-25 06:19 47.91110 14.43382 25254 ft 385 kts 89°
2026-04-25 06:19 47.91065 14.47447 25171 ft 388 kts 89°
2026-04-25 06:19 47.91022 14.51463 25085 ft 388 kts 89°
2026-04-25 06:20 47.90977 14.55480 24999 ft 387 kts 89°
2026-04-25 06:20 47.90927 14.59491 24913 ft 387 kts 89°
2026-04-25 06:20 47.90873 14.63503 24827 ft 386 kts 89°
2026-04-25 06:20 47.90818 14.67499 24742 ft 385 kts 89°
2026-04-25 06:21 47.90760 14.71493 24604 ft 385 kts 89°
2026-04-25 06:21 47.90704 14.75419 24198 ft 383 kts 89°
2026-04-25 06:21 47.90646 14.79426 23756 ft 380 kts 89°
2026-04-25 06:21 47.90589 14.83347 23312 ft 377 kts 89°
2026-04-25 06:22 47.90531 14.87188 22876 ft 374 kts 89°
2026-04-25 06:22 47.90469 14.91047 22433 ft 372 kts 89°
2026-04-25 06:22 47.90408 14.94937 21992 ft 370 kts 89°
2026-04-25 06:22 47.90348 14.98695 21542 ft 367 kts 89°
2026-04-25 06:23 47.90284 15.02489 21102 ft 365 kts 89°
2026-04-25 06:23 47.90219 15.06259 20645 ft 363 kts 89°
2026-04-25 06:23 47.90153 15.10004 20191 ft 360 kts 89°
2026-04-25 06:23 47.90088 15.13726 19736 ft 358 kts 89°
2026-04-25 06:24 47.90022 15.17427 19294 ft 356 kts 89°
2026-04-25 06:24 47.89955 15.21107 18852 ft 353 kts 89°
2026-04-25 06:24 47.89890 15.24752 18408 ft 351 kts 89°
2026-04-25 06:24 47.89824 15.28378 17968 ft 349 kts 89°
2026-04-25 06:25 47.89754 15.31976 17540 ft 347 kts 89°
2026-04-25 06:25 47.89684 15.35557 17111 ft 345 kts 89°
2026-04-25 06:25 47.89614 15.39152 16742 ft 355 kts 89°
2026-04-25 06:25 47.89544 15.42872 16359 ft 361 kts 89°
2026-04-25 06:26 47.89464 15.46617 15967 ft 362 kts 90°
2026-04-25 06:26 47.89079 15.50321 15575 ft 362 kts 102°
2026-04-25 06:26 47.88466 15.53956 15180 ft 361 kts 102°
2026-04-25 06:26 47.87861 15.57571 14799 ft 358 kts 102°
2026-04-25 06:27 47.87263 15.61158 14419 ft 356 kts 101°
2026-04-25 06:27 47.86667 15.64718 14035 ft 353 kts 102°
2026-04-25 06:27 47.86071 15.68257 13664 ft 352 kts 102°
2026-04-25 06:27 47.85479 15.71773 13284 ft 349 kts 101°
2026-04-25 06:28 47.84891 15.75266 12913 ft 347 kts 101°
2026-04-25 06:28 47.84307 15.78736 12550 ft 345 kts 101°
2026-04-25 06:28 47.83723 15.82195 12182 ft 343 kts 101°
2026-04-25 06:28 47.83143 15.85632 11808 ft 341 kts 101°
2026-04-25 06:29 47.82566 15.89031 11449 ft 340 kts 101°
2026-04-25 06:29 47.81986 15.92436 11081 ft 338 kts 101°
2026-04-25 06:29 47.81408 15.95833 10720 ft 339 kts 101°
2026-04-25 06:29 47.80831 15.99223 10331 ft 338 kts 102°
2026-04-25 06:30 47.80263 16.02548 9923 ft 324 kts 102°
2026-04-25 06:30 47.79714 16.05745 9583 ft 313 kts 102°
2026-04-25 06:30 47.79172 16.08908 9480 ft 316 kts 102°
2026-04-25 06:30 47.78636 16.12028 9354 ft 316 kts 102°
2026-04-25 06:31 47.78090 16.15195 9099 ft 315 kts 102°
2026-04-25 06:31 47.77548 16.18342 8797 ft 315 kts 102°
2026-04-25 06:31 47.77216 16.21525 8485 ft 309 kts 86°
2026-04-25 06:31 47.77461 16.24654 8177 ft 301 kts 70°
2026-04-25 06:32 47.78223 16.27492 7880 ft 292 kts 55°
2026-04-25 06:32 47.79235 16.30121 7592 ft 293 kts 54°
2026-04-25 06:32 47.80242 16.32744 7301 ft 291 kts 55°
2026-04-25 06:32 47.81240 16.35358 6998 ft 290 kts 54°
2026-04-25 06:33 47.82230 16.37957 6702 ft 288 kts 55°
2026-04-25 06:33 47.83207 16.40529 6412 ft 279 kts 55°
2026-04-25 06:33 47.84130 16.42970 6140 ft 264 kts 55°
2026-04-25 06:33 47.85006 16.45296 5881 ft 251 kts 55°
2026-04-25 06:34 47.85840 16.47510 5630 ft 240 kts 55°
2026-04-25 06:34 47.86637 16.49623 5387 ft 229 kts 54°
2026-04-25 06:34 47.87414 16.51673 5188 ft 222 kts 54°
2026-04-25 06:34 47.88142 16.53605 4972 ft 206 kts 54°
2026-04-25 06:35 47.88819 16.55408 4760 ft 194 kts 54°
2026-04-25 06:35 47.89456 16.57102 4567 ft 182 kts 54°
2026-04-25 06:35 47.90060 16.58704 4381 ft 173 kts 53°
2026-04-25 06:35 47.90632 16.60222 4217 ft 164 kts 53°
2026-04-25 06:36 47.91185 16.61685 4052 ft 160 kts 53°
2026-04-25 06:36 47.91731 16.63126 3891 ft 159 kts 53°
2026-04-25 06:36 47.92400 16.64368 3765 ft 150 kts 32°
2026-04-25 06:36 47.93281 16.65073 3586 ft 141 kts 11°
2026-04-25 06:37 47.94230 16.65230 3444 ft 135 kts 351°
2026-04-25 06:37 47.95123 16.64922 3299 ft 131 kts 341°
2026-04-25 06:37 47.95995 16.64553 3167 ft 130 kts 341°
2026-04-25 06:37 47.96869 16.64184 3009 ft 130 kts 341°
2026-04-25 06:38 47.97743 16.63818 2846 ft 131 kts 341°
2026-04-25 06:38 47.98616 16.63451 2682 ft 129 kts 342°
2026-04-25 06:38 47.99472 16.63092 2504 ft 126 kts 342°
2026-04-25 06:38 48.00312 16.62738 2338 ft 125 kts 341°
2026-04-25 06:39 48.01148 16.62387 2163 ft 125 kts 341°
2026-04-25 06:39 48.01987 16.62033 2005 ft 125 kts 342°
2026-04-25 06:39 48.02826 16.61680 1843 ft 126 kts 342°
2026-04-25 06:39 48.03666 16.61327 1677 ft 125 kts 342°
2026-04-25 06:40 48.04503 16.60974 1512 ft 125 kts 342°
2026-04-25 06:40 48.05342 16.60620 1349 ft 125 kts 342°
2026-04-25 06:40 48.06177 16.60268 1177 ft 125 kts 343°
2026-04-25 06:40 48.07011 16.59916 1015 ft 125 kts 343°
2026-04-25 06:41 48.07847 16.59563 843 ft 125 kts 342°
2026-04-25 06:41 48.08683 16.59206 679 ft 126 kts 343°
2026-04-25 06:41 48.09508 16.58859 622 ft 117 kts 342°
2026-04-25 06:41 48.10216 16.58552 613 ft 85 kts 344°
2026-04-25 06:42 48.10636 16.58378 614 ft 53 kts 345°
2026-04-25 06:42 48.10983 16.58240 620 ft 51 kts 345°
2026-04-25 06:42 48.11315 16.58097 610 ft 49 kts 343°
2026-04-25 06:42 48.11585 16.57979 620 ft 26 kts 345°
2026-04-25 06:43 48.11759 16.57905 612 ft 26 kts 345°
2026-04-25 06:43 48.11859 16.57715 610 ft 24 kts 272°
2026-04-25 06:43 48.11823 16.57479 610 ft 24 kts 252°
2026-04-25 06:43 48.11841 16.57262 616 ft 21 kts 291°
2026-04-25 06:44 48.11905 16.57131 621 ft 12 kts 293°
2026-04-25 06:44 48.11942 16.57020 622 ft 9 kts 313°
2026-04-25 06:44 48.11975 16.57027 609 ft 4 kts 21°
2026-04-25 06:44 48.11991 16.57040 609 ft 0 kts 25°